Location: Augirein
(42.9320°N, 0.9181°E)
Time: 18:02:57
(UTC+00:00)

Cosmos 858 Rocket - Pass Details

Date: 20 June 2021
Orbit: 756 x 775 km, 74.0° (Epoch: 31 July)

Event Time Altitude Azimuth Distance (km) Brightness Sun altitude
Rises 01:04:15 0° 340° (NNW) 3,261 8.6 -21.9°
Reaches altitude 10° 01:06:39 10° 342° (NNW) 2,329 7.7 -21.8°
Maximum altitude 01:11:57 82° 69° (ENE) 785 4.5 -21.5°
Enters shadow 01:14:08 37° 153° (SSE) 1,194 5.1 -21.3°
